Liberia, Costa Rica

2:55 PM CST on December 10, 2016 (GMT -0600)
Daniel Oduber Quiros International

Weather History for MRLB - May, 2012

Change the Weather History Date:

Thursday, May 17, 2012

  Actual Average Record
Temperature  
Mean Temperature 82 °F -  
Max Temperature 92 °F 88 °F 96 °F (2008)
Min Temperature 73 °F 75 °F 70 °F (2013)
Cooling Degree Days 18    
Growing Degree Days 32 (Base 50)    
Moisture  
Dew Point 74 °F    
Average Humidity 68    
Maximum Humidity 94    
Minimum Humidity 43    
Precipitation  
Precipitation 0.00 in - - ()
Sea Level Pressure  
Sea Level Pressure 29.77 in    
Wind  
Wind Speed 5 mph ()    
Max Wind Speed 18 mph    
Max Gust Speed -    
Visibility 8.0 miles    
Events Thunderstorm    
Averages and records for this station are not official NWS values.
T = Trace of Precipitation, MM = Missing Value Source: Averaged Metar Reports

Daily Weather History Graph

Daily Weather History Graph

Search for Another Location

Airport or City:

Trip Planner

Search our weather history database for the weather conditions in past years. The results will help you decide how hot, cold, wet, or windy it might be!

Date:

Astronomy

May. 17, 2012 Rise Set
Actual Time 5:19 AM CST 5:57 PM CST
Civil Twilight 4:57 AM CST 6:19 PM CST
Nautical Twilight 4:31 AM CST 6:46 PM CST
Astronomical Twilight 4:04 AM CST 7:13 PM CST
Moon 2:51 AM CST (5/17) 3:30 PM CST (5/17)
Length of Visible Light 13h 22m
Length of Day
12h 37m
Waning Crescent, 9% of the Moon is Illuminated
May 17
Waning Crescent
May 20
New
May 28
First Quarter
Jun 4
Full
Jun 11
Last Quarter

Hourly Weather History & Observations

Time (CST) Temp. Heat Index Dew Point Humidity Pressure Visibility Wind Dir Wind Speed Gust Speed Precip Events Conditions
6:00 AM 74 °F - 72 °F 94% 29.75 in 12 mi NE 3.5 mph - -   Scattered Clouds
6:00 AM 75.2 °F - 73.4 °F 94% 29.78 in - NE 3.5 mph - N/A   Clear
7:00 AM 80.6 °F 86.2 °F 75.2 °F 84% 29.81 in - Calm Calm - N/A   Clear
8:00 AM 84.2 °F 90.9 °F 73.4 °F 70% 29.84 in - SE 3.5 mph - N/A   Clear
9:00 AM 86 °F - 74 °F 59% 29.82 in 12 mi WSW 4.6 mph - -   Clear
9:00 AM 86.0 °F 93.4 °F 73.4 °F 66% 29.85 in - WSW 4.6 mph - N/A   Clear
10:00 AM 87.8 °F 95.6 °F 73.4 °F 62% 29.84 in 6.2 mi SW 4.6 mph - N/A   Mostly Cloudy
11:00 AM 89.6 °F 98.2 °F 73.4 °F 59% 29.81 in 6.2 mi South 2.3 mph - N/A   Scattered Clouds
12:00 PM 92 °F - 72 °F 43% 29.78 in 12 mi East 8.1 mph - -   Partly Cloudy
12:00 PM 91.4 °F 98.4 °F 71.6 °F 52% 29.79 in 6.2 mi East 8.1 mph - N/A   Scattered Clouds
1:00 PM 91.4 °F 98.4 °F 71.6 °F 52% 29.76 in 6.2 mi East 11.5 mph - N/A   Scattered Clouds
2:00 PM 91.4 °F 98.4 °F 71.6 °F 52% - 6.2 mi ENE 6.9 mph - N/A   Mostly Cloudy
3:00 PM 89 °F - 75 °F 56% 29.72 in 12 mi WSW 17.9 mph - -   Partly Cloudy
3:00 PM 87.8 °F 97.6 °F 75.2 °F 66% 29.73 in 6.2 mi WSW 9.2 mph - N/A   Mostly Cloudy
4:00 PM 87.8 °F 97.6 °F 75.2 °F 66% 29.72 in 6.2 mi West 6.9 mph - N/A   Mostly Cloudy
5:00 PM 86.0 °F 95.1 °F 75.2 °F 70% 29.72 in 6.2 mi West 6.9 mph - N/A   Mostly Cloudy
6:00 PM 85 °F - 75 °F 65% 29.69 in 12 mi West 11.2 mph - -   Scattered Clouds
6:00 PM 84.2 °F 92.3 °F 75.2 °F 74% 29.74 in 6.2 mi West 5.8 mph - N/A   Scattered Clouds
7:00 PM 80.6 °F 86.2 °F 75.2 °F 84% 29.78 in 6.2 mi SSE 6.9 mph - N/A Thunderstorm Thunderstorm
8:00 PM 77.0 °F - 73.4 °F 89% 29.79 in 6.2 mi South 5.8 mph - N/A   Scattered Clouds